Flag for U.S.A. Weather past 2 weeks in Orange, California, U.S.A.

Now
83 °F

Broken clouds.


Feels Like: 84 °F
Forecast: 66 / 90 °F
Wind: 8 mph from Southwest

Location: John Wayne Airport-Orange County Airport

Current Time: Jul 30, 2014 at 2:17:16 PM

Latest Report: Jul 30, 2014 at 1:53 PM


Visibility: 10 mi

Pressure: 29.93 "Hg

Humidity: 50%

Dew point: 62 °F

Location of OrangeLocation

Historic Weather in Orange — Graph

°F

Orange temperature yesterday

Maximum temperature yesterday: 85 °F (at 11:53 AM)
Minimum temperature yesterday: 71 °F (at 3:53 AM)
Average temperature yesterday: 77 °F

Past Weeks' High & Low Weather Summary

 TemperatureHumidityPressure
High91 °F (Jul 28, 12:53 PM)87% (Jul 26, 6:53 AM)30.06 "Hg (Jul 26, 6:53 AM)
Low68 °F (Jul 18, 5:53 AM)22% (Jul 28, 1:53 PM)29.72 "Hg (Jul 24, 5:53 PM)
Average75 °F63%29.96 "Hg
* Reported Jul 15 12:53 PM — Jul 30 12:53 PM, Orange, Weather by CustomWeather, © 2014

Note: Actual official high and low records may vary slightly from our data, if they occured in-between our weather recording intervals... More about our weather records

Advertising

Orange weather history for previous 24 hours

 ConditionsComfort  
Time TempWeatherWind HumidityBarometerVisibility
12:53 PM
Jul 30
85 °FBroken clouds.9 mph45%29.94 "Hg10 mi
11:53 AM84 °FBroken clouds.8 mph49%29.94 "Hg10 mi
10:53 AM81 °FScattered clouds.7 mph56%29.95 "Hg10 mi
9:53 AM79 °FScattered clouds.3 mph58%29.96 "Hg10 mi
8:53 AM75 °FScattered clouds.6 mph69%29.96 "Hg10 mi
7:53 AM73 °FScattered clouds.6 mph76%29.96 "Hg10 mi
6:53 AM71 °FPassing clouds.3 mph81%29.95 "Hg10 mi
5:53 AM71 °FPassing clouds.No wind78%29.93 "Hg10 mi
4:53 AM70 °FClear.No wind79%29.93 "Hg10 mi
3:53 AM71 °FClear.No wind81%29.93 "Hg8 mi
2:53 AM71 °FClear.No wind78%29.93 "Hg10 mi
1:53 AM71 °FClear.No wind81%29.94 "Hg10 mi
12:53 AM71 °FClear.No wind81%29.95 "Hg9 mi
11:53 PM
Jul 29
72 °FClear.6 mph78%29.96 "Hg10 mi
10:53 PM73 °FPassing clouds.7 mph76%29.97 "Hg10 mi
9:53 PM73 °FPassing clouds.No wind71%29.96 "Hg10 mi
8:53 PM75 °FPassing clouds.7 mph64%29.96 "Hg10 mi
7:53 PM75 °FBroken clouds.7 mph66%29.95 "Hg10 mi
6:53 PM78 °FPartly sunny.5 mph50%29.94 "Hg10 mi
5:53 PM78 °FPartly sunny.6 mph54%29.94 "Hg10 mi
4:53 PM78 °FPartly sunny.10 mph56%29.94 "Hg10 mi
3:53 PM84 °FHigh level clouds.9 mph38%29.94 "Hg10 mi
2:53 PM83 °FOvercast.7 mph34%29.95 "Hg10 mi
Weather by CustomWeather, © 2014

See weather overviewHow to use our weather pages